Volver al catálogo

SL-19 R/B

ActivoLEO
NORAD 36589·ROCKET BODY·🇷🇺 Russia

Lanzado Jun 2, 2010 desde Plesetsk Cosmodrome

Loading…

Próximos Pases (próximas 24 horas)

TLE

ActualizadoSource: Space-Track

Época: Sep 14, 2026, 08:17 UTC

1 36589U 10023B   26257.34539902 -.00000022  00000-0  31634-4 0  9990
2 36589 100.5173 224.2764 0225763  90.6223  77.5236 13.58552197807746

Sigue SL-19 R/B en tiempo real con AllMySat

Download on the App Store